Location: Brno
(49.2000°N, 16.6330°E)
Time: 05:51:07
(UTC+02:00)

Iridium 2 - Visible Passes

Search period start: 17 April 2014 00:00
Search period end: 27 April 2014 00:00
Orbit: 537 x 552 km, 85.6° (Epoch: 16 April)

Date Brightness Start Highest point End Pass type
(mag) Time Alt. Az. Time Alt. Az. Time Alt. Az.
17 Apr 4.7 21:27:21 10° NNE 21:30:59 32° ENE 21:31:59 28° ESE visible
17 Apr 5.7 23:03:36 10° NNW 23:06:49 24° W 23:07:36 22° WSW visible
18 Apr 4.7 21:21:27 10° NNE 21:25:05 33° ENE 21:26:25 26° ESE visible
18 Apr 5.7 22:57:42 10° NNW 23:00:55 24° W 23:02:03 21° WSW visible
19 Apr 4.7 21:15:32 10° NNE 21:19:11 33° ENE 21:20:53 23° ESE visible
19 Apr 5.8 22:51:48 10° NNW 22:55:00 23° W 22:56:31 19° WSW visible
20 Apr 4.6 21:09:36 10° NNE 21:13:16 33° ENE 21:15:20 20° SE visible
20 Apr 5.9 22:45:53 10° NNW 22:49:05 23° W 22:50:58 17° WSW visible
21 Apr 4.6 21:03:40 10° NNE 21:07:20 33° ENE 21:09:49 17° SE visible
21 Apr 5.9 22:39:57 10° NNW 22:43:09 23° W 22:45:27 15° SW visible
22 Apr 4.6 20:57:43 10° NNE 21:01:24 34° ENE 21:04:18 15° SE visible
22 Apr 6.0 22:34:01 10° NNW 22:37:12 23° W 22:39:56 12° SW visible
23 Apr 4.6 20:51:46 10° NNE 20:55:27 34° ENE 20:58:47 12° SE visible
23 Apr 6.0 22:28:05 10° NNW 22:31:15 23° W 22:34:25 10° SW visible
24 Apr 4.6 20:45:48 10° NNE 20:49:30 34° ENE 20:53:10 10° SE visible
24 Apr 6.0 22:22:07 10° NNW 22:25:17 23° W 22:28:26 10° SW visible
25 Apr 4.6 20:39:49 10° NNE 20:43:31 34° ENE 20:47:12 10° SE visible
25 Apr 6.1 22:16:09 10° NNW 22:19:19 23° W 22:22:28 10° SW visible
26 Apr 4.6 20:33:50 10° NNE 20:37:33 34° ENE 20:41:13 10° SE visible
26 Apr 6.1 22:10:11 10° NNW 22:13:20 22° W 22:16:28 10° SW visible
